Regional Weather Roundup
Issued by NWS

Home | Current Version | Previous Version | Text Only | Print | Product List | Glossary Off
Versions: 1 2 3 4 5 6 7 8 9 10 11 12 13 14 15 16 17 18 19 20 21 22 23 24 25 26 27 28 29 30 31 32 33 34 35 36 37 38 39 40 41 42 43 44 45 46 47 48 49 50

000
ASUS45 KPSR 301800
RWRAZ

PRELIMINARY ARIZONA REGIONAL HOURLY WEATHER ROUNDUP
NATIONAL WEATHER SERVICE PHOENIX AZ
1100 AM MST SAT AUG 30 2014

NOTE: FAIR INDICATES FEW OR NO CLOUDS BELOW 12,000 FEET WITH NO
SIGNIFICANT WEATHER AND/OR OBSTRUCTIONS TO VISIBILITY.

AZZ001>003-036-301900-
NORTHWEST ARIZONA

CITY           SKY/WX    TMP DP  RH WIND       PRES   REMARKS
KINGMAN        SUNNY     95  33  11 SW12      29.97F
6HR MIN TEMP:  66; 6HR MAX TEMP:  95;

$$

AZZ004>008-015-016-018-301900-
NORTH CENTRAL ARIZONA

CITY           SKY/WX    TMP DP  RH WIND       PRES   REMARKS
GRAND CANYON   MOSUNNY   79  36  21 SW16G22   30.25S
WILLIAMS       SUNNY     77  39  25 SW8       30.31S
PRESCOTT       SUNNY     83  51  33 N7        30.13F
6HR MIN TEMP:  59; 6HR MAX TEMP:  83;

FLAGSTAFF      SUNNY     77  38  24 SW14G22   30.27F
6HR MIN TEMP:  44; 6HR MAX TEMP:  77;

PAYSON         SUNNY     86  41  20 SW7G15    30.16F
PAGE           MOSUNNY   85  38  18 VRB3      30.05F
6HR MIN TEMP:  67; 6HR MAX TEMP:  85;

$$

AZZ009>014-017-301900-
NORTHEAST ARIZONA

CITY           SKY/WX    TMP DP  RH WIND       PRES   REMARKS
WINSLOW        NOT AVBL
SAINT JOHNS    SUNNY     83  41  22 VRB6      30.17F
6HR MIN TEMP:  54; 6HR MAX TEMP:  83;

$$

AZZ023-301900-
GREATER PHOENIX AREA

CITY           SKY/WX    TMP DP  RH WIND       PRES   REMARKS
PHOENIX        MOSUNNY  100  45  15 SE10      29.81F
6HR MIN TEMP:  83; 6HR MAX TEMP: 101;

GLENDALE       MOSUNNY   99  45  15 E6        29.83F
DEER VALLEY    SUNNY     97  42  15 SE8       29.84F
6HR MIN TEMP:  77; 6HR MAX TEMP:  97;

SCOTTSDALE     SUNNY     99  43  14 VRB5      29.86F
6HR MIN TEMP:  78; 6HR MAX TEMP:  99;

MESA-FALCON    SUNNY     99  45  15 E5        29.84F
MESA-GATEWAY   SUNNY     99  39  12 E6        29.86F
CHANDLER       SUNNY     99  45  15 NE6       29.84F
$$

AZZ027-028-301900-
SOUTHWEST MARICOPA COUNTY AND PINAL COUNTY

CITY           SKY/WX    TMP DP  RH WIND       PRES   REMARKS
CASA GRANDE    SUNNY     99  48  18 CALM      29.86F
6HR MIN TEMP:  73; 6HR MAX TEMP:  99;

$$

AZZ503-504-507>509-301900-
SOUTHEAST ARIZONA

CITY           SKY/WX    TMP DP  RH WIND       PRES   REMARKS
TUCSON         SUNNY     96  42  15 CALM      29.96F
6HR MIN TEMP:  74; 6HR MAX TEMP:  96;

DAVIS-MONTHAN  SUNNY     96  44  16 E1        29.94F
6HR MIN TEMP:  71; 6HR MAX TEMP:  96;

NOGALES        SUNNY     91  47  21 VRB3      30.05F
6HR MIN TEMP:  59; 6HR MAX TEMP:  91;

SIERRA VISTA   SUNNY     88  46  23 E7        30.11F
6HR MIN TEMP:  67; 6HR MAX TEMP:  88;

SAFFORD        SUNNY     93  43  17 E8        29.98F
6HR MIN TEMP:  66; 6HR MAX TEMP:  94;

$$

AZZ020-021-025-026-031-301900-
SOUTHWEST ARIZONA

CITY           SKY/WX    TMP DP  RH WIND       PRES   REMARKS
YUMA           SUNNY    103  46  14 S8        29.73F
6HR MIN TEMP:  83; 6HR MAX TEMP: 103;

$$

CAZ031-033-041-043-047-048-061-301900-
SOUTHERN CALIFORNIA

CITY           SKY/WX    TMP DP  RH WIND       PRES   REMARKS
DOWNTOWN L.A.  SUNNY     80  63  55 W3        29.84S
6HR MIN TEMP:  65; 6HR MAX TEMP:  80;

L.A. AIRPORT   MOSUNNY   75  64  68 W9        29.85S
SAN DIEGO      MOSUNNY   74  63  68 S5        29.85S
6HR MIN TEMP:  68; 6HR MAX TEMP:  74;

BURBANK        SUNNY     81  58  45 SE7       29.85S
6HR MIN TEMP:  65; 6HR MAX TEMP:  81;

ONTARIO        MOSUNNY   84  56  38 CALM      29.85S
6HR MIN TEMP:  64; 6HR MAX TEMP:  84;

RIVERSIDE      SUNNY     85  55  35 CALM      29.84F
6HR MIN TEMP:  64; 6HR MAX TEMP:  85;

PALM SPRINGS   SUNNY    104  32   8 W3        29.75S
6HR MIN TEMP:  78; 6HR MAX TEMP: 104;

EL CENTRO NAS  SUNNY    105  50  15 CALM      29.72S HX 102
6HR MIN TEMP:  76; 6HR MAX TEMP: 105;

IMPERIAL       SUNNY    101  40  12 CALM      29.71S
6HR MIN TEMP:  77; 6HR MAX TEMP: 101;

BLYTHE         SUNNY     99  39  12 CALM      29.75S
6HR MIN TEMP:  76; 6HR MAX TEMP: 100;

$$

NVZ020-UTZ003-301900-
SOUTHERN NEVADA-UTAH

CITY           SKY/WX    TMP DP  RH WIND       PRES   REMARKS
LAS VEGAS      NOT AVBL
SALT LAKE CITY CLOUDY    77  40  26 SE7       29.97R
6HR MIN TEMP:  70; 6HR MAX TEMP:  79;

$$

NMZ009-TXZ055-301900-
NEW MEXICO-WEST TEXAS

CITY           SKY/WX    TMP DP  RH WIND       PRES   REMARKS
ALBUQUERQUE    MOSUNNY   80  44  27 SW8       30.17F
6HR MIN TEMP:  61; 6HR MAX TEMP:  81;

EL PASO        MOSUNNY   88  48  25 S7        30.07F
6HR MIN TEMP:  72; 6HR MAX TEMP:  89;

$$


........................KEY........................
SKY/WX - SKY CONDITION/WEATHER
TMP    - TEMPERATURE IN FAHRENHEIT
DP     - DEW POINT IN FAHRENHEIT
RH     - RELATIVE HUMIDITY IN PERCENT
WIND   - DIRECTION AND SPEED IN MILES PER HOUR (MPH)
VRB    - VARIABLE WIND DIRECTION
PRES   - MEAN SEA LEVEL PRESSURE IN INCHES OF MERCURY
         F - FALLING PRESSURE   R - RISING PRESSURE
         S - STEADY PRESSURE
VSB    - VISIBILITY IN MILES
HX     - HEAT INDEX IN FAHRENHEIT
WCI    - WIND CHILL INDEX IN FAHRENHEIT
TC     - TEMPERATURE IN CELSIUS WHICH IS ALSO KNOWN AS
         TEMPERATURE IN CENTIGRADE
AFB    - AIR FORCE BASE
         LUKE AFB IS LUKE AIR FORCE BASE
         DAVIS-MONTHAN IS DAVIS-MONTHAN AIR FORCE BASE
NAS    - NAVAL AIR STATION
         EL CENTRO NAS IS EL CENTRO NAVAL AIR STATION
N/A    - NOT AVAILABLE



USA.gov is the U.S. government's official web portal to all federal, state and local government web resources and services.